{"data":{"norad_id":64617,"epoch":"2026-09-20T01:30:22.361184Z","epoch_age_seconds":169373,"freshness":"FRESH","line1":"1 64617U 25137Z   26263.06275881  .00025032  00000+0  74929-3 0  9993","line2":"2 64617  53.1574 135.8903 0000929  65.6644 294.4456 15.34409357 70823","mean_motion":15.34409357,"eccentricity":9.29e-5,"inclination_deg":53.1574,"raan_deg":135.8903,"arg_perigee_deg":65.6644,"mean_anomaly_deg":294.4456,"bstar":0.00074929,"rev_number":7082,"period_min":93.847185787202,"perigee_km":462.03991789785,"apogee_km":463.31094084723,"semimajor_km":6840.8124293725,"source":"CELESTRAK","updated_at":"2026-09-21T09:00:35.395914Z"}}